Radiation Dose at Monitoring Post of Fukushima Daini Nuclear Power Station
Date,Time,MP-1(microSv/h),MP-2(microSv/h),MP-3(microSv/h),MP-4(microSv/h),MP-5(microSv/h),MP-6(microSv/h),MP-7(microSv/h),Wind Direction,Wind Velocity(m/s),Rain
2023/11/22,00:00,0.147,0.133,0.211,0.200,0.207,0.120,0.077,-,CALM,No
2023/11/22,00:10,0.147,0.133,0.211,0.201,0.207,0.120,0.077,-,CALM,No
2023/11/22,00:20,0.147,0.132,0.211,0.201,0.207,0.120,0.077,northeast,1.0,No
2023/11/22,00:30,0.148,0.133,0.211,0.200,0.208,0.120,0.076,-,CALM,No
2023/11/22,00:40,0.147,0.133,0.211,0.200,0.207,0.120,0.076,-,CALM,No
2023/11/22,00:50,0.148,0.133,0.211,0.200,0.208,0.120,0.076,-,CALM,No
2023/11/22,01:00,0.147,0.133,0.211,0.200,0.208,0.120,0.076,south-southwest,0.9,No
2023/11/22,01:10,0.148,0.134,0.211,0.200,0.207,0.120,0.077,west-southwest,2.7,No
2023/11/22,01:20,0.147,0.132,0.212,0.201,0.208,0.121,0.077,southwest,3.6,No
2023/11/22,01:30,0.146,0.133,0.211,0.201,0.209,0.120,0.076,southwest,2.6,No
2023/11/22,01:40,0.148,0.133,0.211,0.199,0.207,0.121,0.077,southwest,2.7,No
2023/11/22,01:50,0.147,0.133,0.211,0.200,0.208,0.120,0.077,southwest,3.1,No
2023/11/22,02:00,0.147,0.132,0.212,0.200,0.207,0.120,0.077,west-southwest,1.8,No
2023/11/22,02:10,0.148,0.133,0.212,0.201,0.208,0.120,0.076,west,1.4,No
2023/11/22,02:20,0.147,0.133,0.211,0.200,0.207,0.120,0.077,west-southwest,0.8,No
2023/11/22,02:30,0.147,0.132,0.211,0.200,0.209,0.120,0.077,west-southwest,1.0,No
2023/11/22,02:40,0.148,0.133,0.211,0.200,0.208,0.120,0.076,-,CALM,No
2023/11/22,02:50,0.148,0.133,0.212,0.200,0.208,0.121,0.078,northwest,1.0,No
2023/11/22,03:00,0.147,0.133,0.210,0.201,0.208,0.120,0.077,north,0.7,No
2023/11/22,03:10,0.147,0.133,0.211,0.200,0.207,0.120,0.078,northeast,1.1,No
2023/11/22,03:20,0.147,0.134,0.212,0.200,0.208,0.121,0.076,northeast,2.0,No
2023/11/22,03:30,0.148,0.133,0.211,0.200,0.208,0.120,0.076,northeast,2.2,No
2023/11/22,03:40,0.147,0.133,0.211,0.199,0.208,0.121,0.077,north-northeast,2.1,No
2023/11/22,03:50,0.147,0.132,0.212,0.199,0.208,0.120,0.077,northeast,1.8,No
2023/11/22,04:00,0.148,0.133,0.210,0.201,0.209,0.120,0.077,north-northeast,1.4,No
2023/11/22,04:10,0.148,0.133,0.211,0.201,0.208,0.121,0.077,north,1.2,No
2023/11/22,04:20,0.148,0.133,0.211,0.200,0.207,0.121,0.077,north-northeast,2.0,No
2023/11/22,04:30,0.147,0.133,0.211,0.200,0.209,0.120,0.077,north,1.4,No
2023/11/22,04:40,0.148,0.133,0.211,0.201,0.208,0.121,0.077,north,1.6,No
2023/11/22,04:50,0.147,0.133,0.211,0.200,0.208,0.120,0.077,north-northeast,1.5,No
2023/11/22,05:00,0.147,0.133,0.211,0.200,0.208,0.121,0.077,north-northeast,1.2,No
2023/11/22,05:10,0.148,0.133,0.211,0.200,0.207,0.120,0.077,north-northeast,1.5,No
2023/11/22,05:20,0.148,0.133,0.211,0.200,0.208,0.121,0.077,northeast,1.0,No
2023/11/22,05:30,0.148,0.133,0.211,0.200,0.208,0.119,0.077,north-northeast,1.4,No
2023/11/22,05:40,0.147,0.133,0.211,0.200,0.207,0.120,0.077,north-northeast,1.5,No
2023/11/22,05:50,0.149,0.134,0.211,0.201,0.208,0.120,0.077,north-northeast,1.6,No
2023/11/22,06:00,0.148,0.134,0.212,0.200,0.209,0.120,0.077,north-northeast,2.1,No
2023/11/22,06:10,0.147,0.134,0.212,0.201,0.208,0.120,0.077,north-northeast,1.8,No
2023/11/22,06:20,0.146,0.133,0.211,0.200,0.208,0.119,0.077,northeast,2.3,No
2023/11/22,06:30,0.148,0.134,0.212,0.200,0.208,0.121,0.076,north-northeast,2.0,No
2023/11/22,06:40,0.147,0.131,0.211,0.200,0.209,0.119,0.077,north-northeast,1.7,No
2023/11/22,06:50,0.147,0.133,0.211,0.200,0.208,0.121,0.077,north-northeast,2.6,No
2023/11/22,07:00,0.148,0.133,0.211,0.200,0.208,0.120,0.077,north,1.5,No
2023/11/22,07:10,0.147,0.133,0.213,0.200,0.207,0.121,0.076,north-northeast,1.1,No
2023/11/22,07:20,0.147,0.132,0.211,0.200,0.208,0.121,0.078,north,1.2,No
2023/11/22,07:30,0.148,0.133,0.212,0.200,0.209,0.120,0.077,north-northeast,0.6,No
2023/11/22,07:40,0.148,0.134,0.212,0.200,0.209,0.121,0.078,north-northeast,1.2,No
2023/11/22,07:50,0.148,0.132,0.211,0.199,0.208,0.121,0.077,north,0.8,No
2023/11/22,08:00,0.146,0.132,0.211,0.200,0.208,0.120,0.077,-,CALM,No
2023/11/22,08:10,0.148,0.133,0.212,0.199,0.207,0.121,0.078,-,CALM,No
2023/11/22,08:20,0.146,0.132,0.212,0.200,0.208,0.120,0.076,northeast,0.6,No
2023/11/22,08:30,0.147,0.132,0.210,0.198,0.207,0.120,0.077,north-northeast,0.9,No
2023/11/22,08:40,0.147,0.133,0.212,0.199,0.209,0.120,0.076,north,0.9,No
2023/11/22,08:50,0.147,0.133,0.211,0.199,0.207,0.120,0.077,north-northwest,1.4,No
2023/11/22,09:00,0.147,0.133,0.210,0.201,0.207,0.120,0.077,northwest,1.2,No
2023/11/22,09:10,0.149,0.132,0.210,0.199,0.210,0.120,0.076,-,CALM,No
2023/11/22,09:20,0.148,0.133,0.212,0.199,0.208,0.120,0.078,-,CALM,No
2023/11/22,09:30,0.148,0.133,0.211,0.197,0.208,0.121,0.077,-,CALM,No
2023/11/22,09:40,0.147,0.133,0.211,0.199,0.206,0.120,0.077,north-northeast,0.8,No
2023/11/22,09:50,0.147,0.133,0.212,0.199,0.208,0.120,0.077,north-northeast,1.1,No
2023/11/22,10:00,0.147,0.132,0.211,0.198,0.208,0.120,0.077,north,1.7,No
2023/11/22,10:10,0.148,0.133,0.212,0.200,0.206,0.120,0.078,northeast,1.4,No
2023/11/22,10:20,0.146,0.132,0.209,0.199,0.209,0.121,0.078,northeast,1.8,No
2023/11/22,10:30,0.148,0.132,0.210,0.200,0.208,0.120,0.078,north-northeast,2.0,No
2023/11/22,10:40,0.147,0.133,0.209,0.200,0.206,0.120,0.077,north-northeast,2.3,No
2023/11/22,10:50,0.147,0.132,0.209,0.199,0.208,0.120,0.077,north,2.5,No
2023/11/22,11:00,0.147,0.132,0.212,0.202,0.207,0.121,0.077,north,2.4,No
2023/11/22,11:10,0.146,0.132,0.210,0.199,0.208,0.120,0.077,north-northeast,2.7,No
2023/11/22,11:20,0.146,0.132,0.212,0.200,0.209,0.120,0.077,north-northeast,2.3,No
2023/11/22,11:30,0.148,0.132,0.210,0.200,0.207,0.120,0.077,north,2.6,No
2023/11/22,11:40,0.148,0.133,0.211,0.200,0.209,0.120,0.077,north,2.7,No
2023/11/22,11:50,0.146,0.134,0.210,0.201,0.207,0.120,0.077,north,2.8,No
2023/11/22,12:00,0.147,0.132,0.211,0.199,0.205,0.120,0.077,north-northeast,3.2,No
2023/11/22,12:10,0.147,0.134,0.212,0.198,0.210,0.120,0.077,northeast,2.0,No
2023/11/22,12:20,0.145,0.132,0.209,0.201,0.207,0.120,0.076,northeast,3.2,No
2023/11/22,12:30,0.148,0.134,0.211,0.198,0.208,0.120,0.076,northeast,2.8,No
2023/11/22,12:40,0.146,0.132,0.211,0.200,0.208,0.120,0.078,north-northeast,1.6,No
2023/11/22,12:50,0.146,0.133,0.212,0.200,0.206,0.119,0.076,north-northeast,2.7,No
2023/11/22,13:00,0.148,0.132,0.211,0.198,0.210,0.120,0.076,north-northeast,2.1,No
2023/11/22,13:10,0.146,0.133,0.212,0.198,0.208,0.120,0.076,northeast,2.7,No
2023/11/22,13:20,0.146,0.133,0.210,0.202,0.210,0.120,0.076,northeast,1.8,No
2023/11/22,13:30,0.148,0.131,0.210,0.198,0.207,0.119,0.076,east-northeast,1.4,No
2023/11/22,13:40,0.146,0.132,0.211,0.200,0.208,0.119,0.077,east-northeast,0.9,No
2023/11/22,13:50,0.147,0.132,0.210,0.199,0.209,0.120,0.075,east-northeast,1.5,No
2023/11/22,14:00,0.147,0.133,0.212,0.198,0.204,-,0.077,east,1.0,No
2023/11/22,14:10,0.149,0.132,0.211,0.201,0.207,-,0.076,east-southeast,0.9,No
2023/11/22,14:20,0.147,0.132,0.212,0.200,0.207,-,0.077,east-southeast,1.0,No
2023/11/22,14:30,0.148,0.132,0.212,0.199,0.207,-,0.076,east,0.6,No
2023/11/22,14:40,0.146,0.133,0.210,0.200,0.207,-,0.077,east-southeast,0.6,No
2023/11/22,14:50,0.148,0.132,0.212,0.199,0.208,-,0.077,east-southeast,0.8,No
2023/11/22,15:00,0.147,0.133,0.211,0.202,0.208,-,0.077,east-southeast,0.8,No
2023/11/22,15:10,0.147,0.133,0.212,0.201,0.209,-,0.076,east-southeast,1.0,No
2023/11/22,15:20,0.148,0.133,0.212,0.201,0.208,0.117,0.076,south-southeast,0.7,No
2023/11/22,15:30,0.148,0.134,0.210,0.200,0.209,0.118,0.077,southeast,0.7,No
2023/11/22,15:40,0.147,0.132,0.211,0.201,0.207,0.117,0.077,southeast,0.6,No
2023/11/22,15:50,0.147,0.134,0.210,0.200,0.209,0.118,0.076,-,CALM,No
2023/11/22,16:00,0.148,0.133,0.209,0.200,0.208,0.117,0.076,-,CALM,No
2023/11/22,16:10,0.146,0.133,0.212,0.200,0.209,0.118,0.076,-,CALM,No
2023/11/22,16:20,0.148,0.132,0.212,0.200,0.207,0.118,0.076,-,CALM,No
2023/11/22,16:30,0.147,0.133,0.211,0.201,0.209,0.118,0.077,-,CALM,No
2023/11/22,16:40,0.147,0.133,0.211,0.200,0.207,0.118,0.076,-,CALM,No
2023/11/22,16:50,0.147,0.133,0.210,0.201,0.209,0.118,0.077,-,CALM,No
2023/11/22,17:00,0.147,0.133,0.212,0.200,0.208,0.119,0.077,-,CALM,No
2023/11/22,17:10,0.147,0.134,0.212,0.200,0.208,0.118,0.077,-,CALM,No
2023/11/22,17:20,0.147,0.133,0.210,0.200,0.209,0.118,0.077,-,CALM,No
2023/11/22,17:30,0.147,0.134,0.211,0.200,0.208,0.117,0.077,south,0.6,No
2023/11/22,17:40,0.147,0.133,0.212,0.200,0.208,0.119,0.077,southeast,0.6,No
2023/11/22,17:50,0.147,0.132,0.211,0.201,0.208,0.119,0.077,southeast,0.6,No
2023/11/22,18:00,0.147,0.132,0.211,0.200,0.208,0.119,0.076,-,CALM,No
2023/11/22,18:10,0.148,0.133,0.212,0.201,0.208,0.119,0.076,south,1.1,No
2023/11/22,18:20,0.147,0.133,0.211,0.201,0.207,0.119,0.077,south-southeast,1.0,No
2023/11/22,18:30,0.147,0.133,0.212,0.199,0.209,0.119,0.076,south,0.8,No
2023/11/22,18:40,0.148,0.133,0.211,0.200,0.207,0.119,0.077,south,1.3,No
2023/11/22,18:50,0.147,0.133,0.211,0.201,0.207,0.119,0.076,south-southeast,2.1,No
2023/11/22,19:00,0.147,0.133,0.211,0.200,0.209,0.119,0.077,south-southeast,2.8,No
2023/11/22,19:10,0.147,0.132,0.212,0.200,0.208,0.119,0.077,south-southeast,3.6,No
2023/11/22,19:20,0.147,0.133,0.212,0.201,0.208,0.120,0.077,south,4.2,No
2023/11/22,19:30,0.148,0.134,0.212,0.200,0.208,0.118,0.077,south,3.8,No
2023/11/22,19:40,0.147,0.134,0.211,0.201,0.207,0.120,0.077,south,4.0,No
2023/11/22,19:50,0.148,0.134,0.212,0.202,0.209,0.118,0.077,south-southeast,4.4,No
2023/11/22,20:00,0.148,0.134,0.212,0.201,0.208,0.119,0.077,south-southeast,3.6,No
2023/11/22,20:10,0.147,0.134,0.210,0.201,0.208,0.119,0.078,south,3.6,No
2023/11/22,20:20,0.148,0.134,0.212,0.201,0.208,0.119,0.077,south,2.8,No
2023/11/22,20:30,0.149,0.133,0.212,0.201,0.208,0.119,0.078,south-southwest,2.1,No
2023/11/22,20:40,0.148,0.133,0.211,0.200,0.208,0.119,0.078,southwest,2.2,No
2023/11/22,20:50,0.147,0.134,0.211,0.200,0.208,0.119,0.078,west,1.7,No
2023/11/22,21:00,0.148,0.134,0.212,0.200,0.209,0.119,0.077,west-southwest,2.6,No
2023/11/22,21:10,0.147,0.134,0.212,0.200,0.209,0.119,0.078,southwest,1.9,No
2023/11/22,21:20,0.148,0.133,0.212,0.201,0.210,0.120,0.077,southwest,1.7,No
2023/11/22,21:30,0.148,0.133,0.212,0.200,0.208,0.119,0.077,south-southwest,0.9,No
2023/11/22,21:40,0.148,0.135,0.212,0.201,0.209,0.119,0.078,south-southwest,1.1,No
2023/11/22,21:50,0.148,0.133,0.211,0.201,0.208,0.120,0.077,southwest,1.6,No
2023/11/22,22:00,0.148,0.133,0.211,0.201,0.209,0.120,0.079,southwest,1.8,No
2023/11/22,22:10,0.148,0.134,0.211,0.200,0.210,0.120,0.077,southwest,1.9,No
2023/11/22,22:20,0.148,0.133,0.212,0.200,0.208,0.119,0.077,south-southwest,2.4,No
2023/11/22,22:30,0.148,0.133,0.211,0.200,0.208,0.119,0.078,south-southwest,2.5,No
2023/11/22,22:40,0.148,0.134,0.211,0.200,0.207,0.119,0.078,south,2.6,No
2023/11/22,22:50,0.149,0.134,0.212,0.200,0.207,0.119,0.077,southwest,1.9,No
2023/11/22,23:00,0.148,0.133,0.212,0.200,0.208,0.119,0.077,south-southwest,2.0,No
2023/11/22,23:10,0.149,0.133,0.212,0.200,0.208,0.119,0.077,south-southwest,2.1,No
2023/11/22,23:20,0.147,0.134,0.211,0.200,0.209,0.119,0.077,south-southwest,1.4,No
2023/11/22,23:30,0.148,0.133,0.212,0.201,0.209,0.119,0.077,south,0.9,No
2023/11/22,23:40,0.148,0.133,0.213,0.200,0.208,0.119,0.077,south,1.1,No
2023/11/22,23:50,0.147,0.133,0.211,0.200,0.207,0.118,0.077,south-southeast,1.2,No
